Flag for United Kingdom Weather past 2 weeks in Lerwick (Shetland Islands), Scotland, United Kingdom

Now
49 °F

Partly sunny.


Feels Like: 42 °F
Forecast: 45 / 47 °F
Wind: 24 mph from West

Location: Lerwick

Current Time: May 26, 2015 at 5:21:57 PM

Latest Report: May 26, 2015 at 4:00 PM


Visibility: 19 mi

Pressure: 29.99 "Hg

Humidity: 78%

Dew point: 42 °F

Location of Lerwick (Shetland Islands)Location

Historic Weather in Lerwick (Shetland Islands) — Graph

°F

Lerwick (Shetland Islands) temperature yesterday

Maximum temperature yesterday: 51 °F (at 3:00 PM)
Minimum temperature yesterday: 43 °F (at 12:00 AM)
Average temperature yesterday: 47 °F

Past Weeks' High & Low Weather Summary

 TemperatureHumidityPressure
High51 °F (May 12, 2:00 PM)100% (May 21, 6:00 PM)30.20 "Hg (May 21, 6:00 PM)
Low38 °F (May 14, 3:00 AM)53% (May 14, 3:00 PM)29.23 "Hg (May 19, 8:00 AM)
Average45 °F83%29.78 "Hg
* Reported May 11 4:00 PM — May 26 4:00 PM, Lerwick (Shetland Islands), Weather by CustomWeather, © 2015

Note: Actual official high and low records may vary slightly from our data, if they occured in-between our weather recording intervals... More about our weather records

Advertising

Lerwick (Shetland Islands) weather history for previous 24 hours

 ConditionsComfort  
Time TempWeatherWind HumidityBarometerVisibility
4:00 PM
Tue, May 26
49 °FPartly sunny.24 mph78%29.99 "Hg19 mi
3:00 PM48 °FOvercast.22 mph80%29.99 "Hg19 mi
2:00 PM49 °FOvercast.25 mph80%29.99 "Hg16 mi
12:00 PM48 °FPartly sunny.23 mph82%29.97 "Hg19 mi
11:00 AM47 °FPartly sunny.22 mph82%29.96 "Hg22 mi
10:00 AM48 °FPartly sunny.17 mph84%29.95 "Hg25 mi
9:00 AM47 °FOvercast.16 mph86%29.95 "Hg25 mi
8:00 AM46 °FLight rain. Low clouds.13 mph97%29.94 "Hg5 mi
7:00 AM45 °FDrizzle. Low clouds.14 mph94%29.94 "Hg2 mi
6:00 AM46 °FOvercast.13 mph81%29.94 "Hg18 mi
5:00 AM45 °FCool.14 mph86%29.95 "Hg15 mi
4:00 AM45 °FLow clouds.12 mph87%29.96 "Hg14 mi
3:00 AM45 °FPassing clouds.10 mph88%29.96 "Hg12 mi
2:00 AM46 °FLight rain. Low clouds.16 mph87%29.97 "Hg11 mi
1:00 AM46 °FLow clouds.15 mph90%29.97 "Hg11 mi
12:00 AM46 °FLow clouds.12 mph93%29.98 "Hg9 mi
11:00 PM
Mon, May 25
46 °FOvercast.12 mph90%29.98 "Hg17 mi
10:00 PM46 °FPassing clouds.9 mph90%29.98 "Hg17 mi
9:00 PM47 °FPartly sunny.8 mph85%29.97 "Hg22 mi
8:00 PM48 °FOvercast.9 mph80%29.96 "Hg22 mi
7:00 PM48 °FOvercast.2 mph77%29.96 "Hg28 mi
6:00 PM48 °FOvercast.5 mph77%29.94 "Hg25 mi
5:00 PM49 °FOvercast.8 mph74%29.93 "Hg19 mi
Weather by CustomWeather, © 2015

See weather overviewHow to use our weather pages